"datetime","temp","dp","rain_mm","uv","solar","mb","wind_mph","gust_mph","windchill","rh"
"2014-06-15 00:00:00",12.6,11.5,0.0,0.0,0,1026.7,0,0,"",93
"2014-06-15 00:01:00",12.6,11.5,0.0,0.0,0,1026.7,0,0,"",93
"2014-06-15 00:02:00",12.5,11.4,0.0,0.0,0,1026.7,0,0,"",93
"2014-06-15 00:03:00",12.4,11.3,0.0,0.0,0,1026.7,0,0,"",93
"2014-06-15 00:04:00",12.4,11.3,0.0,0.0,0,1026.7,0,0,"",93
"2014-06-15 00:05:00",12.3,11.2,0.0,0.0,0,1026.7,0,0,"",93
"2014-06-15 00:06:00",12.3,11.4,0.0,0.0,0,1026.7,0,0,"",94
"2014-06-15 00:07:00",12.3,11.4,0.0,0.0,0,1026.7,0,0,"",94
"2014-06-15 00:08:00",12.3,11.3,0.0,0.0,0,1026.7,0,0,"",94
"2014-06-15 00:09:00",12.3,11.3,0.0,0.0,0,1026.7,0,0,"",94
"2014-06-15 00:10:00",12.2,11.3,0.0,0.0,0,1026.7,0,0,"",94
"2014-06-15 00:11:00",12.2,11.3,0.0,0.0,0,1026.7,0,0,"",94
"2014-06-15 00:12:00",12.2,11.3,0.0,0.0,0,1026.7,0,0,"",94
"2014-06-15 00:13:00",12.3,11.3,0.0,0.0,0,1026.7,0,0,"",94
"2014-06-15 00:14:00",12.3,11.4,0.0,0.0,0,1026.7,0,0,"",94
"2014-06-15 00:15:00",12.3,11.4,0.0,0.0,0,1026.7,0,0,"",94
"2014-06-15 00:16:00",12.3,11.4,0.0,0.0,0,1026.7,0,0,"",94
"2014-06-15 00:17:00",12.3,11.4,0.0,0.0,0,1026.7,0,0,"",94
"2014-06-15 00:18:00",12.3,11.4,0.0,0.0,0,1026.7,0,0,"",94
"2014-06-15 00:19:00",12.4,11.4,0.0,0.0,0,1026.8,0,0,"",94
"2014-06-15 00:20:00",12.4,11.5,0.0,0.0,0,1026.7,0,0,"",94
"2014-06-15 00:21:00",12.4,11.5,0.0,0.0,0,1026.8,0,0,"",94
"2014-06-15 00:22:00",12.4,11.5,0.0,0.0,0,1026.8,0,0,"",94
"2014-06-15 00:23:00",12.4,11.5,0.0,0.0,0,1026.8,0,0,"",94
"2014-06-15 00:24:00",12.4,11.5,0.0,0.0,0,1026.8,0,0,"",94
"2014-06-15 00:25:00",12.4,11.5,0.0,0.0,0,1026.8,0,0,"",94
"2014-06-15 00:26:00",12.4,11.5,0.0,0.0,0,1026.8,0,0,"",94
"2014-06-15 00:27:00",12.4,11.5,0.0,0.0,0,1026.8,0,0,"",94
"2014-06-15 00:28:00",12.4,11.5,0.0,0.0,0,1026.8,0,0,"",94
"2014-06-15 00:29:00",12.4,11.5,0.0,0.0,0,1026.8,0,0,"",94
"2014-06-15 00:30:00",12.4,11.5,0.0,0.0,0,1026.8,0,0,"",94
"2014-06-15 00:31:00",12.4,11.5,0.0,0.0,0,1026.8,0,0,"",94
"2014-06-15 00:32:00",12.4,11.5,0.0,0.0,0,1026.8,0,0,"",94
"2014-06-15 00:33:00",12.4,11.5,0.0,0.0,0,1026.9,0,0,"",94
"2014-06-15 00:34:00",12.4,11.5,0.0,0.0,0,1026.8,0,0,"",94
"2014-06-15 00:35:00",12.4,11.5,0.0,0.0,0,1026.8,0,0,"",94
"2014-06-15 00:36:00",12.4,11.5,0.0,0.0,0,1026.8,0,0,"",94
"2014-06-15 00:37:00",12.4,11.5,0.0,0.0,0,1026.8,0,0,"",94
"2014-06-15 00:38:00",12.4,11.5,0.0,0.0,0,1026.8,0,0,"",94
"2014-06-15 00:39:00",12.4,11.5,0.0,0.0,0,1026.8,0,0,"",94
"2014-06-15 00:40:00",12.4,11.5,0.0,0.0,0,1026.8,0,0,"",94
"2014-06-15 00:41:00",12.4,11.5,0.0,0.0,0,1026.8,0,0,"",94
"2014-06-15 00:42:00",12.4,11.5,0.0,0.0,0,1026.8,0,0,"",94
"2014-06-15 00:43:00",12.4,11.5,0.0,0.0,0,1026.8,0,0,"",94
"2014-06-15 00:44:00",12.4,11.5,0.0,0.0,0,1026.8,0,0,"",94
"2014-06-15 00:45:00",12.4,11.5,0.0,0.0,0,1026.8,0,0,"",94
"2014-06-15 00:46:00",12.4,11.5,0.0,0.0,0,1026.8,0,1,"",94
"2014-06-15 00:47:00",12.4,11.5,0.0,0.0,0,1026.8,1,3,"",94
"2014-06-15 00:48:00",12.4,11.3,0.0,0.0,0,1026.7,2,3,"",93
"2014-06-15 00:49:00",12.4,11.3,0.0,0.0,0,1026.7,1,7,"",93
"2014-06-15 00:50:00",12.4,11.3,0.0,0.0,0,1026.7,2,3,"",93
"2014-06-15 00:51:00",12.5,11.4,0.0,0.0,0,1026.8,0,1,"",93
"2014-06-15 00:52:00",12.6,11.5,0.0,0.0,0,1026.8,0,0,"",93
"2014-06-15 00:53:00",12.6,11.3,0.0,0.0,0,1026.8,0,0,"",92
"2014-06-15 00:54:00",12.6,11.3,0.0,0.0,0,1026.8,0,0,"",92
"2014-06-15 00:55:00",12.6,11.3,0.0,0.0,0,1026.8,0,0,"",92
"2014-06-15 00:56:00",12.6,11.3,0.0,0.0,0,1026.8,0,0,"",92
"2014-06-15 00:57:00",12.6,11.3,0.0,0.0,0,1026.8,0,3,"",92
"2014-06-15 00:58:00",12.6,11.3,0.0,0.0,0,1026.8,2,1,"",92
"2014-06-15 00:59:00",12.6,11.3,0.0,0.0,0,1026.8,1,3,"",92
"2014-06-15 01:00:00",12.6,11.3,0.0,0.0,0,1026.8,1,1,"",92
"2014-06-15 01:01:00",12.6,11.1,0.0,0.0,0,1026.8,0,1,"",91
"2014-06-15 01:02:00",12.6,11.1,0.0,0.0,0,1026.8,0,0,"",91
"2014-06-15 01:03:00",12.6,11.1,0.0,0.0,0,1026.8,0,1,"",91
"2014-06-15 01:04:00",12.6,11.3,0.0,0.0,0,1026.8,0,3,"",92
"2014-06-15 01:05:00",12.6,11.2,0.0,0.0,0,1026.8,1,3,"",91
"2014-06-15 01:06:00",12.6,11.2,0.0,0.0,0,1026.8,1,1,"",91
"2014-06-15 01:07:00",12.6,11.2,0.0,0.0,0,1026.8,1,3,"",91
"2014-06-15 01:08:00",12.7,11.2,0.0,0.0,0,1026.7,1,1,"",91
"2014-06-15 01:09:00",12.7,11.2,0.0,0.0,0,1026.8,0,0,"",91
"2014-06-15 01:10:00",12.7,11.2,0.0,0.0,0,1026.8,0,0,"",91
"2014-06-15 01:11:00",12.7,11.2,0.0,0.0,0,1026.8,0,0,"",91
"2014-06-15 01:12:00",12.7,11.2,0.0,0.0,0,1026.8,0,0,"",91
"2014-06-15 01:13:00",12.7,11.2,0.0,0.0,0,1026.8,0,0,"",91
"2014-06-15 01:14:00",12.7,11.2,0.0,0.0,0,1026.8,0,0,"",91
"2014-06-15 01:15:00",12.7,11.2,0.0,0.0,0,1026.8,0,0,"",91
"2014-06-15 01:16:00",12.6,11.2,0.0,0.0,0,1026.8,0,0,"",91
"2014-06-15 01:17:00",12.6,11.2,0.0,0.0,0,1026.8,0,3,"",91
"2014-06-15 01:18:00",12.6,11.2,0.0,0.0,0,1026.8,0,0,"",91
"2014-06-15 01:19:00",12.6,11.2,0.0,0.0,0,1026.8,0,0,"",91
"2014-06-15 01:20:00",12.6,11.2,0.0,0.0,0,1026.8,0,0,"",91
"2014-06-15 01:21:00",12.6,11.2,0.0,0.0,0,1026.8,0,0,"",91
"2014-06-15 01:22:00",12.6,11.1,0.0,0.0,0,1026.8,0,0,"",91
"2014-06-15 01:23:00",12.6,11.3,0.0,0.0,0,1026.8,0,0,"",92
"2014-06-15 01:24:00",12.6,11.3,0.0,0.0,0,1026.8,0,0,"",92
"2014-06-15 01:25:00",12.6,11.3,0.0,0.0,0,1026.8,0,0,"",92
"2014-06-15 01:26:00",12.6,11.3,0.0,0.0,0,1026.9,0,0,"",92
"2014-06-15 01:27:00",12.6,11.3,0.0,0.0,0,1026.9,0,0,"",92
"2014-06-15 01:28:00",12.6,11.3,0.0,0.0,0,1026.9,0,0,"",92
"2014-06-15 01:29:00",12.6,11.3,0.0,0.0,0,1026.9,0,0,"",92
"2014-06-15 01:30:00",12.6,11.3,0.0,0.0,0,1027.0,0,0,"",92
"2014-06-15 01:31:00",12.6,11.4,0.0,0.0,0,1027.0,0,0,"",92
"2014-06-15 01:32:00",12.7,11.4,0.0,0.0,0,1027.0,0,0,"",92
"2014-06-15 01:33:00",12.6,11.4,0.0,0.0,0,1027.0,0,0,"",92
"2014-06-15 01:34:00",12.6,11.4,0.0,0.0,0,1027.0,0,0,"",92
"2014-06-15 01:35:00",12.6,11.4,0.0,0.0,0,1026.9,0,0,"",92
"2014-06-15 01:36:00",12.7,11.4,0.0,0.0,0,1026.9,0,0,"",92
"2014-06-15 01:37:00",12.7,11.4,0.0,0.0,0,1026.9,0,0,"",92
"2014-06-15 01:38:00",12.7,11.4,0.0,0.0,0,1026.9,0,0,"",92
"2014-06-15 01:39:00",12.7,11.4,0.0,0.0,0,1026.9,0,0,"",92
"2014-06-15 01:40:00",12.7,11.4,0.0,0.0,0,1026.9,0,0,"",92
"2014-06-15 01:41:00",12.7,11.2,0.0,0.0,0,1026.9,0,0,"",91
"2014-06-15 01:42:00",12.7,11.3,0.0,0.0,0,1026.9,0,0,"",91
"2014-06-15 01:43:00",12.7,11.5,0.0,0.0,0,1026.9,0,0,"",92
"2014-06-15 01:44:00",12.7,11.3,0.0,0.0,0,1026.9,0,0,"",91
"2014-06-15 01:45:00",12.7,11.3,0.0,0.0,0,1026.9,0,0,"",91
"2014-06-15 01:46:00",12.8,11.3,0.0,0.0,0,1026.9,1,3,"",91
"2014-06-15 01:47:00",12.8,11.2,0.0,0.0,0,1026.9,2,3,"",90
"2014-06-15 01:48:00",12.8,11.2,0.0,0.0,0,1026.9,1,3,"",90
"2014-06-15 01:49:00",12.8,11.2,0.0,0.0,0,1026.9,2,7,"",90
"2014-06-15 01:50:00",12.8,11.2,0.0,0.0,0,1026.9,3,5,"",90
"2014-06-15 01:51:00",12.9,11.1,0.0,0.0,0,1027.0,1,1,"",89
"2014-06-15 01:52:00",12.9,11.3,0.0,0.0,0,1026.9,1,1,"",90
"2014-06-15 01:53:00",12.9,11.3,0.0,0.0,0,1027.0,0,0,"",90
"2014-06-15 01:54:00",12.9,11.3,0.0,0.0,0,1027.0,0,1,"",90
"2014-06-15 01:55:00",12.9,11.3,0.0,0.0,0,1026.9,0,1,"",90
"2014-06-15 01:56:00",12.9,11.3,0.0,0.0,0,1026.9,1,5,"",90
"2014-06-15 01:57:00",12.9,11.2,0.0,0.0,0,1026.9,2,5,"",89
"2014-06-15 01:58:00",13.0,11.0,0.0,0.0,0,1027.0,2,3,"",88
"2014-06-15 01:59:00",13.0,11.1,0.0,0.0,0,1027.0,1,1,"",88
"2014-06-15 02:00:00",13.0,11.1,0.0,0.0,0,1026.9,2,10,"",88
"2014-06-15 02:01:00",13.1,11.1,0.0,0.0,0,1026.9,1,1,"",88
"2014-06-15 02:02:00",13.1,11.1,0.0,0.0,0,1026.9,0,1,"",88
"2014-06-15 02:03:00",13.1,10.9,0.0,0.0,0,1027.0,0,0,"",87
"2014-06-15 02:04:00",13.1,10.9,0.0,0.0,0,1027.0,0,0,"",87
"2014-06-15 02:05:00",13.1,10.9,0.0,0.0,0,1027.0,0,3,"",87
"2014-06-15 02:06:00",13.1,10.9,0.0,0.0,0,1027.0,1,3,"",87
"2014-06-15 02:07:00",13.1,10.9,0.0,0.0,0,1026.9,0,1,"",87
"2014-06-15 02:08:00",13.1,10.9,0.0,0.0,0,1027.0,0,1,"",87
"2014-06-15 02:09:00",13.1,10.9,0.0,0.0,0,1027.0,0,1,"",87
"2014-06-15 02:10:00",13.1,10.9,0.0,0.0,0,1027.0,1,3,"",87
"2014-06-15 02:11:00",13.1,10.9,0.0,0.0,0,1027.0,1,1,"",87
"2014-06-15 02:12:00",13.1,11.0,0.0,0.0,0,1026.9,0,1,"",87
"2014-06-15 02:13:00",13.1,11.0,0.0,0.0,0,1026.9,1,5,"",87
"2014-06-15 02:14:00",13.1,11.0,0.0,0.0,0,1026.9,1,1,"",87
"2014-06-15 02:15:00",13.1,11.0,0.0,0.0,0,1026.9,0,1,"",87
"2014-06-15 02:16:00",13.1,11.0,0.0,0.0,0,1026.9,0,1,"",87
"2014-06-15 02:17:00",13.1,11.0,0.0,0.0,0,1026.9,0,0,"",87
"2014-06-15 02:18:00",13.1,11.0,0.0,0.0,0,1026.8,0,0,"",87
"2014-06-15 02:19:00",13.1,10.9,0.0,0.0,0,1026.9,0,0,"",87
"2014-06-15 02:20:00",13.1,10.9,0.0,0.0,0,1026.8,0,1,"",87
"2014-06-15 02:21:00",13.1,10.9,0.0,0.0,0,1026.8,0,3,"",87
"2014-06-15 02:22:00",13.1,10.8,0.0,0.0,0,1026.8,1,3,"",86
"2014-06-15 02:23:00",13.1,10.8,0.0,0.0,0,1026.8,1,1,"",86
"2014-06-15 02:24:00",13.1,10.9,0.0,0.0,0,1026.8,1,3,"",87
"2014-06-15 02:25:00",13.1,10.8,0.0,0.0,0,1026.8,1,1,"",86
"2014-06-15 02:26:00",13.1,10.9,0.0,0.0,0,1026.8,1,1,"",87
"2014-06-15 02:27:00",13.1,10.9,0.0,0.0,0,1026.8,0,1,"",87
"2014-06-15 02:28:00",13.1,10.9,0.0,0.0,0,1026.8,0,0,"",87
"2014-06-15 02:29:00",13.1,10.9,0.0,0.0,0,1026.8,1,5,"",87
"2014-06-15 02:30:00",13.1,10.8,0.0,0.0,0,1026.8,2,3,"",86
"2014-06-15 02:31:00",13.1,10.8,0.0,0.0,0,1026.8,1,3,"",86
"2014-06-15 02:32:00",13.1,10.6,0.0,0.0,0,1026.8,1,1,"",85
"2014-06-15 02:33:00",13.1,10.8,0.0,0.0,0,1026.8,1,1,"",86
"2014-06-15 02:34:00",13.1,10.8,0.0,0.0,0,1026.8,0,1,"",86
"2014-06-15 02:35:00",13.1,10.8,0.0,0.0,0,1026.8,0,1,"",86
"2014-06-15 02:36:00",13.1,10.8,0.0,0.0,0,1026.8,0,1,"",86
"2014-06-15 02:37:00",13.1,10.8,0.0,0.0,0,1026.7,0,1,"",86
"2014-06-15 02:38:00",13.1,10.8,0.0,0.0,0,1026.7,0,3,"",86
"2014-06-15 02:39:00",13.1,10.6,0.0,0.0,0,1026.7,1,1,"",85
"2014-06-15 02:40:00",13.1,10.6,0.0,0.0,0,1026.7,1,3,"",85
"2014-06-15 02:41:00",13.1,10.6,0.0,0.0,0,1026.7,1,1,"",85
"2014-06-15 02:42:00",13.1,10.6,0.0,0.0,0,1026.7,0,1,"",85
"2014-06-15 02:43:00",13.1,10.8,0.0,0.0,0,1026.7,0,0,"",86
"2014-06-15 02:44:00",13.1,10.8,0.0,0.0,0,1026.7,0,1,"",86
"2014-06-15 02:45:00",13.1,10.6,0.0,0.0,0,1026.7,1,1,"",85
"2014-06-15 02:46:00",13.1,10.8,0.0,0.0,0,1026.7,1,3,"",86
"2014-06-15 02:47:00",13.1,10.6,0.0,0.0,0,1026.6,0,0,"",85
"2014-06-15 02:48:00",13.1,10.8,0.0,0.0,0,1026.6,0,0,"",86
"2014-06-15 02:49:00",13.1,10.8,0.0,0.0,0,1026.6,0,0,"",86
"2014-06-15 02:50:00",13.1,11.0,0.0,0.0,0,1026.6,0,1,"",87
"2014-06-15 02:51:00",13.1,10.8,0.0,0.0,0,1026.6,0,1,"",86
"2014-06-15 02:52:00",13.1,10.6,0.0,0.0,0,1026.7,0,0,"",85
"2014-06-15 02:53:00",13.1,10.9,0.0,0.0,0,1026.7,0,0,"",87
"2014-06-15 02:54:00",13.1,10.8,0.0,0.0,0,1026.7,0,0,"",86
"2014-06-15 02:55:00",13.1,10.8,0.0,0.0,0,1026.7,0,0,"",86
"2014-06-15 02:56:00",13.0,10.5,0.0,0.0,0,1026.7,0,1,"",85
"2014-06-15 02:57:00",13.0,10.7,0.0,0.0,0,1026.7,1,1,"",86
"2014-06-15 02:58:00",13.0,10.5,0.0,0.0,0,1026.7,1,1,"",85
"2014-06-15 02:59:00",13.0,10.5,0.0,0.0,0,1026.7,1,3,"",85
"2014-06-15 03:00:00",13.0,10.5,0.0,0.0,0,1026.7,1,1,"",85
"2014-06-15 03:01:00",13.0,10.4,0.0,0.0,0,1026.7,0,1,"",84
"2014-06-15 03:02:00",13.1,10.6,0.0,0.0,0,1026.7,0,0,"",85
"2014-06-15 03:03:00",13.1,10.6,0.0,0.0,0,1026.7,0,0,"",85
"2014-06-15 03:04:00",13.1,10.6,0.0,0.0,0,1026.7,0,0,"",85
"2014-06-15 03:05:00",13.1,10.6,0.0,0.0,0,1026.7,0,1,"",85
"2014-06-15 03:06:00",13.1,10.6,0.0,0.0,0,1026.7,0,1,"",85
"2014-06-15 03:07:00",13.1,10.6,0.0,0.0,0,1026.7,1,3,"",85
"2014-06-15 03:08:00",13.0,10.6,0.0,0.0,0,1026.7,1,1,"",85
"2014-06-15 03:09:00",13.0,10.4,0.0,0.0,0,1026.7,1,3,"",84
"2014-06-15 03:10:00",13.0,10.4,0.0,0.0,0,1026.6,1,1,"",84
"2014-06-15 03:11:00",13.0,10.4,0.0,0.0,0,1026.7,0,1,"",84
"2014-06-15 03:12:00",13.0,10.4,0.0,0.0,0,1026.7,0,1,"",84
"2014-06-15 03:13:00",13.0,10.6,0.0,0.0,0,1026.7,0,0,"",85
"2014-06-15 03:14:00",13.1,10.8,0.0,0.0,0,1026.7,0,0,"",86
"2014-06-15 03:15:00",13.0,10.7,0.0,0.0,0,1026.8,0,0,"",86
"2014-06-15 03:16:00",13.0,10.7,0.0,0.0,0,1026.7,0,0,"",86
"2014-06-15 03:17:00",13.0,10.7,0.0,0.0,0,1026.8,0,0,"",86
"2014-06-15 03:18:00",12.9,10.5,0.0,0.0,0,1026.8,0,0,"",85
"2014-06-15 03:19:00",12.9,10.7,0.0,0.0,0,1026.8,0,0,"",86
"2014-06-15 03:20:00",12.9,10.7,0.0,0.0,0,1026.7,0,0,"",86
"2014-06-15 03:21:00",12.9,10.7,0.0,0.0,0,1026.8,0,1,"",86
"2014-06-15 03:22:00",12.9,10.7,0.0,0.0,0,1026.7,1,5,"",86
"2014-06-15 03:23:00",12.9,10.5,0.0,0.0,0,1026.8,1,0,"",85
"2014-06-15 03:24:00",12.9,10.7,0.0,0.0,0,1026.8,0,1,"",86
"2014-06-15 03:25:00",12.9,10.5,0.0,0.0,0,1026.8,0,1,"",85
"2014-06-15 03:26:00",12.9,10.5,0.0,0.0,0,1026.8,0,3,"",85
"2014-06-15 03:27:00",12.9,10.5,0.0,0.0,0,1026.8,1,1,"",85
"2014-06-15 03:28:00",12.9,10.5,0.0,0.0,0,1026.8,0,0,"",85
"2014-06-15 03:29:00",12.9,10.5,0.0,0.0,0,1026.8,0,0,"",85
"2014-06-15 03:30:00",12.9,10.5,0.0,0.0,0,1026.8,0,0,"",85
"2014-06-15 03:31:00",12.9,10.7,0.0,0.0,0,1026.8,0,1,"",86
"2014-06-15 03:32:00",12.9,10.5,0.0,0.0,0,1026.8,0,0,"",85
"2014-06-15 03:33:00",12.9,10.6,0.0,0.0,0,1026.8,0,0,"",86
"2014-06-15 03:34:00",12.9,10.6,0.0,0.0,0,1026.8,0,0,"",86
"2014-06-15 03:35:00",12.9,10.6,0.0,0.0,0,1026.8,0,0,"",86
"2014-06-15 03:36:00",12.9,10.4,0.0,0.0,0,1026.8,0,0,"",85
"2014-06-15 03:37:00",12.8,10.4,0.0,0.0,0,1026.8,0,0,"",85
"2014-06-15 03:38:00",12.8,10.4,0.0,0.0,0,1026.8,0,1,"",85
"2014-06-15 03:39:00",12.8,10.4,0.0,0.0,0,1026.8,1,3,"",85
"2014-06-15 03:40:00",12.8,10.2,0.0,0.0,0,1026.8,1,0,"",84
"2014-06-15 03:41:00",12.9,10.4,0.0,0.0,0,1026.8,0,1,"",85
"2014-06-15 03:42:00",12.9,10.2,0.0,0.0,0,1026.8,0,1,"",84
"2014-06-15 03:43:00",12.9,10.2,0.0,0.0,0,1026.8,1,3,"",84
"2014-06-15 03:44:00",12.9,10.4,0.0,0.0,0,1026.8,1,1,"",85
"2014-06-15 03:45:00",12.9,10.6,0.0,0.0,0,1026.8,0,1,"",86
"2014-06-15 03:46:00",12.9,10.4,0.0,0.0,0,1026.9,0,1,"",85
"2014-06-15 03:47:00",12.9,10.4,0.0,0.0,0,1026.9,1,1,"",85
"2014-06-15 03:48:00",12.9,10.4,0.0,0.0,0,1026.8,0,0,"",85
"2014-06-15 03:49:00",12.8,10.4,0.0,0.0,0,1026.8,0,0,"",85
"2014-06-15 03:50:00",12.8,10.4,0.0,0.0,0,1026.8,0,1,"",85
"2014-06-15 03:51:00",12.8,10.4,0.0,0.0,0,1026.8,0,3,"",85
"2014-06-15 03:52:00",12.8,10.4,0.0,0.0,0,1026.8,2,3,"",85
"2014-06-15 03:53:00",12.8,10.4,0.0,0.0,0,1026.9,1,5,"",85
"2014-06-15 03:54:00",12.8,10.5,0.0,0.0,0,1026.9,1,1,"",86
"2014-06-15 03:55:00",12.8,10.5,0.0,0.0,0,1026.9,0,3,"",86
"2014-06-15 03:56:00",12.8,10.4,0.0,0.0,0,1026.9,1,1,"",85
"2014-06-15 03:57:00",12.8,10.4,0.0,0.0,0,1026.8,0,1,"",85
"2014-06-15 03:58:00",12.8,10.2,0.0,0.0,0,1026.8,0,1,"",84
"2014-06-15 03:59:00",12.8,10.2,0.0,0.0,0,1026.8,0,1,"",84
"2014-06-15 04:00:00",12.9,10.2,0.0,0.0,0,1026.8,0,1,"",84
"2014-06-15 04:01:00",12.9,10.4,0.0,0.0,0,1026.8,0,0,"",85
"2014-06-15 04:02:00",12.9,10.4,0.0,0.0,0,1026.8,0,0,"",85
"2014-06-15 04:03:00",12.9,10.4,0.0,0.0,0,1026.8,0,1,"",85
"2014-06-15 04:04:00",12.9,10.4,0.0,0.0,0,1026.8,1,1,"",85
"2014-06-15 04:05:00",12.9,10.3,0.0,0.0,0,1026.8,0,1,"",84
"2014-06-15 04:06:00",12.9,10.4,0.0,0.0,0,1026.7,0,1,"",85
"2014-06-15 04:07:00",12.9,10.4,0.0,0.0,0,1026.8,0,1,"",85
"2014-06-15 04:08:00",12.9,10.4,0.0,0.0,0,1026.8,0,3,"",85
"2014-06-15 04:09:00",12.9,10.2,0.0,0.0,0,1026.8,1,3,"",84
"2014-06-15 04:10:00",12.9,10.4,0.0,0.0,0,1026.8,0,1,"",85
"2014-06-15 04:11:00",12.9,10.4,0.0,0.0,0,1026.8,0,1,"",85
"2014-06-15 04:12:00",12.9,10.4,0.0,0.0,0,1026.8,1,1,"",85
"2014-06-15 04:13:00",12.9,10.4,0.0,0.0,0,1026.8,0,0,"",85
"2014-06-15 04:14:00",12.9,10.4,0.0,0.0,0,1026.8,0,3,"",85
"2014-06-15 04:15:00",12.9,10.4,0.0,0.0,0,1026.8,1,1,"",85
"2014-06-15 04:16:00",12.9,10.2,0.0,0.0,0,1026.8,0,1,"",84
"2014-06-15 04:17:00",12.9,10.4,0.0,0.0,0,1026.8,0,0,"",85
"2014-06-15 04:18:00",12.9,10.6,0.0,0.0,0,1026.8,0,3,"",86
"2014-06-15 04:19:00",12.9,10.4,0.0,0.0,0,1026.8,1,3,"",85
"2014-06-15 04:20:00",12.9,10.4,0.0,0.0,0,1026.8,0,0,"",85
"2014-06-15 04:21:00",12.9,10.6,0.0,0.0,0,1026.8,0,1,"",86
"2014-06-15 04:22:00",12.9,10.6,0.0,0.0,0,1026.8,0,1,"",86
"2014-06-15 04:23:00",12.8,10.4,0.0,0.0,0,1026.8,0,1,"",85
"2014-06-15 04:24:00",12.8,10.5,0.0,0.0,0,1026.8,0,3,"",86
"2014-06-15 04:25:00",12.8,10.4,0.0,0.0,0,1026.8,1,1,"",85
"2014-06-15 04:26:00",12.8,10.2,0.0,0.0,0,1026.8,0,0,"",84
"2014-06-15 04:27:00",12.9,10.4,0.0,0.0,0,1026.8,0,0,"",85
"2014-06-15 04:28:00",12.9,10.6,0.0,0.0,0,1026.8,0,0,"",86
"2014-06-15 04:29:00",12.9,10.6,0.0,0.0,0,1026.8,0,1,"",86
"2014-06-15 04:30:00",12.9,10.6,0.0,0.0,0,1026.8,0,1,"",86
"2014-06-15 04:31:00",12.8,10.5,0.0,0.0,0,1026.8,0,0,"",86
"2014-06-15 04:32:00",12.8,10.5,0.0,0.0,0,1026.9,0,0,"",86
"2014-06-15 04:33:00",12.8,10.5,0.0,0.0,0,1026.9,0,0,"",86
"2014-06-15 04:34:00",12.8,10.5,0.0,0.0,0,1026.9,0,0,"",86
"2014-06-15 04:35:00",12.8,10.5,0.0,0.0,0,1026.9,0,0,"",86
"2014-06-15 04:36:00",12.8,10.5,0.0,0.0,0,1026.9,0,0,"",86
"2014-06-15 04:37:00",12.8,10.5,0.0,0.0,0,1026.9,0,0,"",86
"2014-06-15 04:38:00",12.8,10.5,0.0,0.0,0,1026.9,0,1,"",86
"2014-06-15 04:39:00",12.8,10.3,0.0,0.0,0,1026.9,0,0,"",85
"2014-06-15 04:40:00",12.8,10.3,0.0,0.0,0,1026.9,0,0,"",85
"2014-06-15 04:41:00",12.8,10.5,0.0,0.0,0,1026.9,0,1,"",86
"2014-06-15 04:42:00",12.8,10.5,0.0,0.0,0,1026.9,0,0,"",86
"2014-06-15 04:43:00",12.8,10.5,0.0,0.0,0,1026.9,0,0,"",86
"2014-06-15 04:44:00",12.8,10.5,0.0,0.0,0,1026.9,0,1,"",86
"2014-06-15 04:45:00",12.8,10.5,0.0,0.0,0,1026.9,0,0,"",86
"2014-06-15 04:46:00",12.8,10.5,0.0,0.0,0,1026.9,0,1,"",86
"2014-06-15 04:47:00",12.8,10.5,0.0,0.0,0,1026.9,0,3,"",86
"2014-06-15 04:48:00",12.8,10.3,0.0,0.0,0,1026.9,1,1,"",85
"2014-06-15 04:49:00",12.8,10.3,0.0,0.0,0,1026.9,1,1,"",85
"2014-06-15 04:50:00",12.8,10.3,0.0,0.0,0,1026.9,2,5,"",85
"2014-06-15 04:51:00",12.8,10.2,0.0,0.0,0,1026.9,2,3,"",84
"2014-06-15 04:52:00",12.8,10.2,0.0,0.0,0,1026.9,0,1,"",84
"2014-06-15 04:53:00",12.8,10.4,0.0,0.0,0,1026.9,0,3,"",85
"2014-06-15 04:54:00",12.8,10.4,0.0,0.0,0,1026.9,1,1,"",85
"2014-06-15 04:55:00",12.8,10.4,0.0,0.0,0,1026.9,1,3,"",85
"2014-06-15 04:56:00",12.8,10.4,0.0,0.0,0,1026.9,2,3,"",85
"2014-06-15 04:57:00",12.8,10.2,0.0,0.0,0,1026.9,1,1,"",84
"2014-06-15 04:58:00",12.8,10.2,0.0,0.0,0,1026.9,0,3,"",84
"2014-06-15 04:59:00",12.9,10.2,0.0,0.0,0,1026.9,1,3,"",84
"2014-06-15 05:00:00",12.9,10.2,0.0,0.0,0,1026.9,2,5,"",84
"2014-06-15 05:01:00",12.9,10.1,0.0,0.0,0,1026.9,1,3,"",83
"2014-06-15 05:02:00",12.9,10.3,0.0,0.0,0,1026.9,1,0,"",84
"2014-06-15 05:03:00",12.9,10.3,0.0,0.0,0,1027.0,0,0,"",84
"2014-06-15 05:04:00",12.9,10.3,0.0,0.0,0,1026.9,0,0,"",84
"2014-06-15 05:05:00",12.9,10.3,0.0,0.0,0,1026.9,1,5,"",84
"2014-06-15 05:06:00",12.9,10.2,0.0,0.0,0,1027.0,1,1,"",84
"2014-06-15 05:07:00",12.9,10.4,0.0,0.0,0,1027.0,0,0,"",85
"2014-06-15 05:08:00",12.9,10.4,0.0,0.0,0,1027.0,0,1,"",85
"2014-06-15 05:09:00",12.9,10.4,0.0,0.0,5,1027.0,0,1,"",85
"2014-06-15 05:10:00",12.9,10.1,0.0,0.0,5,1026.9,1,3,"",83
"2014-06-15 05:11:00",12.9,10.1,0.0,0.0,5,1026.9,1,1,"",83
"2014-06-15 05:12:00",12.9,10.1,0.0,0.0,5,1026.9,1,1,"",83
"2014-06-15 05:13:00",12.9,10.1,0.0,0.0,5,1027.0,0,1,"",83
"2014-06-15 05:14:00",12.9,10.3,0.0,0.0,5,1027.0,0,1,"",84
"2014-06-15 05:15:00",12.9,10.3,0.0,0.0,5,1026.9,0,1,"",84
"2014-06-15 05:16:00",12.9,10.3,0.0,0.0,5,1027.0,0,1,"",84
"2014-06-15 05:17:00",12.9,10.2,0.0,0.0,5,1027.0,0,1,"",84
"2014-06-15 05:18:00",12.9,10.2,0.0,0.0,5,1027.0,0,0,"",84
"2014-06-15 05:19:00",12.9,10.2,0.0,0.0,5,1027.0,0,1,"",84
"2014-06-15 05:20:00",12.8,10.2,0.0,0.0,5,1027.0,0,3,"",84
"2014-06-15 05:21:00",12.8,10.2,0.0,0.0,5,1027.0,1,1,"",84
"2014-06-15 05:22:00",12.8,10.2,0.0,0.0,7,1027.0,1,1,"",84
"2014-06-15 05:23:00",12.8,10.2,0.0,0.0,7,1027.0,0,1,"",84
"2014-06-15 05:24:00",12.8,10.2,0.0,0.0,7,1027.0,0,1,"",84
"2014-06-15 05:25:00",12.9,10.2,0.0,0.0,7,1027.0,0,1,"",84
"2014-06-15 05:26:00",12.9,10.2,0.0,0.0,9,1027.0,0,1,"",84
"2014-06-15 05:27:00",12.9,10.2,0.0,0.0,9,1027.0,0,1,"",84
"2014-06-15 05:28:00",12.9,10.2,0.0,0.0,9,1027.0,0,1,"",84
"2014-06-15 05:29:00",12.9,10.2,0.0,0.0,11,1027.0,0,1,"",84
"2014-06-15 05:30:00",12.9,10.2,0.0,0.0,11,1027.0,1,1,"",84
"2014-06-15 05:31:00",12.9,10.2,0.0,0.0,11,1027.0,0,1,"",84
"2014-06-15 05:32:00",12.9,10.4,0.0,0.0,12,1027.0,0,1,"",85
"2014-06-15 05:33:00",12.9,10.2,0.0,0.0,12,1027.0,0,0,"",84
"2014-06-15 05:34:00",12.9,10.4,0.0,0.0,12,1027.0,0,0,"",85
"2014-06-15 05:35:00",12.9,10.4,0.0,0.0,12,1027.0,0,7,"",85
"2014-06-15 05:36:00",12.9,10.2,0.0,0.0,14,1027.0,2,5,"",84
"2014-06-15 05:37:00",12.9,10.2,0.0,0.0,14,1027.0,1,7,"",84
"2014-06-15 05:38:00",12.9,10.1,0.0,0.0,14,1026.9,3,8,"",83
"2014-06-15 05:39:00",12.9,9.9,0.0,0.0,14,1027.0,1,1,"",82
"2014-06-15 05:40:00",12.9,10.1,0.0,0.0,14,1027.0,0,0,"",83
"2014-06-15 05:41:00",12.9,10.1,0.0,0.0,14,1027.0,0,0,"",83
"2014-06-15 05:42:00",12.9,10.1,0.0,0.0,14,1027.0,0,1,"",83
"2014-06-15 05:43:00",12.9,10.3,0.0,0.0,14,1027.0,1,3,"",84
"2014-06-15 05:44:00",12.9,10.3,0.0,0.0,16,1027.0,1,3,"",84
"2014-06-15 05:45:00",12.9,10.1,0.0,0.0,18,1027.0,1,5,"",83
"2014-06-15 05:46:00",12.9,9.9,0.0,0.0,19,1027.0,2,5,"",82
"2014-06-15 05:47:00",13.0,10.0,0.0,0.0,18,1027.0,1,1,"",82
"2014-06-15 05:48:00",13.0,10.2,0.0,0.0,16,1026.9,0,3,"",83
"2014-06-15 05:49:00",13.0,10.0,0.0,0.0,16,1026.9,1,1,"",82
"2014-06-15 05:50:00",13.0,10.0,0.0,0.0,14,1026.9,0,1,"",82
"2014-06-15 05:51:00",13.0,10.0,0.0,0.0,14,1027.0,0,1,"",82
"2014-06-15 05:52:00",13.0,10.2,0.0,0.0,16,1026.9,1,3,"",83
"2014-06-15 05:53:00",13.0,10.0,0.0,0.0,16,1026.9,1,3,"",82
"2014-06-15 05:54:00",13.0,10.2,0.0,0.0,14,1026.9,1,3,"",83
"2014-06-15 05:55:00",13.0,10.2,0.0,0.0,14,1026.9,2,5,"",83
"2014-06-15 05:56:00",13.0,10.0,0.0,0.0,16,1026.9,1,3,"",82
"2014-06-15 05:57:00",13.0,10.2,0.0,0.0,18,1026.9,0,1,"",83
"2014-06-15 05:58:00",13.0,10.2,0.0,0.0,19,1026.9,0,1,"",83
"2014-06-15 05:59:00",13.0,10.3,0.0,0.0,21,1026.9,0,0,"",84
"2014-06-15 06:00:00",13.0,10.4,0.0,0.0,21,1027.0,0,0,"",84
"2014-06-15 06:01:00",13.0,10.4,0.0,0.0,23,1027.0,0,0,"",84
"2014-06-15 06:02:00",13.0,10.3,0.0,0.0,23,1027.0,0,1,"",84
"2014-06-15 06:03:00",12.9,10.1,0.0,0.0,26,1027.0,0,1,"",83
"2014-06-15 06:04:00",13.0,10.0,0.0,0.0,26,1027.0,0,0,"",82
"2014-06-15 06:05:00",13.0,10.2,0.0,0.0,26,1027.0,0,0,"",83
"2014-06-15 06:07:00",13.0,10.2,0.0,0.0,26,1027.0,0,0,"",83
"2014-06-15 06:08:00",13.0,10.4,0.0,0.0,28,1027.0,0,1,"",84
"2014-06-15 06:09:00",13.0,10.2,0.0,0.0,30,1027.0,1,5,"",83
"2014-06-15 06:10:00",13.0,10.0,0.0,0.0,28,1027.1,1,3,"",82
"2014-06-15 06:11:00",13.0,10.0,0.0,0.0,28,1027.0,1,1,"",82
"2014-06-15 06:12:00",13.1,10.1,0.0,0.0,28,1027.0,0,1,"",82
"2014-06-15 06:13:00",13.1,10.1,0.0,0.0,28,1027.0,1,1,"",82
"2014-06-15 06:14:00",13.1,10.1,0.0,0.0,28,1027.0,1,3,"",82
"2014-06-15 06:15:00",13.1,10.3,0.0,0.0,32,1027.0,1,1,"",83
"2014-06-15 06:16:00",13.1,10.1,0.0,0.0,33,1027.0,0,1,"",82
"2014-06-15 06:17:00",13.1,10.3,0.0,0.0,35,1027.0,0,1,"",83
"2014-06-15 06:18:00",13.1,10.1,0.0,0.0,39,1027.0,0,1,"",82
"2014-06-15 06:19:00",13.1,10.1,0.0,0.0,39,1027.0,0,1,"",82
"2014-06-15 06:20:00",13.1,10.3,0.0,0.0,40,1027.0,0,1,"",83
"2014-06-15 06:21:00",13.1,10.1,0.0,0.0,40,1027.0,0,1,"",82
"2014-06-15 06:22:00",13.1,10.3,0.0,0.0,40,1027.0,0,0,"",83
"2014-06-15 06:23:00",13.1,10.1,0.0,0.0,40,1027.0,0,0,"",82
"2014-06-15 06:24:00",13.1,10.1,0.0,0.0,42,1027.0,0,0,"",82
"2014-06-15 06:25:00",13.2,10.2,0.0,0.0,46,1027.0,0,0,"",82
"2014-06-15 06:26:00",13.2,10.2,0.0,0.0,47,1027.0,0,1,"",82
"2014-06-15 06:27:00",13.2,10.3,0.0,0.0,47,1027.0,1,1,"",83
"2014-06-15 06:28:00",13.2,10.4,0.0,0.0,47,1027.0,1,1,"",83
"2014-06-15 06:29:00",13.2,10.4,0.0,0.0,47,1027.0,1,1,"",83
"2014-06-15 06:30:00",13.2,10.2,0.0,0.0,49,1027.0,0,0,"",82
"2014-06-15 06:31:00",13.2,10.2,0.0,0.0,47,1027.0,0,1,"",82
"2014-06-15 06:32:00",13.2,10.2,0.0,0.0,44,1027.0,1,7,"",82
"2014-06-15 06:33:00",13.2,10.2,0.0,0.0,42,1027.1,1,1,"",82
"2014-06-15 06:34:00",13.3,10.5,0.0,0.0,42,1027.0,0,1,"",83
"2014-06-15 06:35:00",13.3,10.3,0.0,0.0,42,1027.1,2,8,"",82
"2014-06-15 06:36:00",13.3,10.1,0.0,0.0,42,1027.1,5,5,"",81
"2014-06-15 06:37:00",13.3,10.1,0.0,0.0,42,1027.1,1,0,"",81
"2014-06-15 06:38:00",13.3,10.3,0.0,0.0,44,1027.1,0,1,"",82
"2014-06-15 06:39:00",13.3,10.1,0.0,0.0,44,1027.1,1,1,"",81
"2014-06-15 06:40:00",13.3,10.1,0.0,0.0,44,1027.1,0,1,"",81
"2014-06-15 06:41:00",13.3,10.1,0.0,0.0,44,1027.1,0,0,"",81
"2014-06-15 06:42:00",13.3,10.3,0.0,0.0,46,1027.1,0,3,"",82
"2014-06-15 06:43:00",13.3,10.3,0.0,0.0,46,1027.1,1,3,"",82
"2014-06-15 06:44:00",13.3,10.3,0.0,0.0,53,1027.1,1,1,"",82